Weather History for Mammoth, CA

Change the Weather History Date:

Monday, December 2, 2013

  Actual Average Record
Temperature  
Mean Temperature 36 °F -  
Max Temperature 59 °F 40 °F 59 °F (2008)
Min Temperature 12 °F 25 °F 12 °F (2013)
Degree Days  
Heating Degree Days 30    
Moisture  
Dew Point 9 °F    
Average Humidity 36    
Maximum Humidity 79    
Minimum Humidity 12    
Precipitation  
Precipitation 0.00 in - - ()
Sea Level Pressure  
Sea Level Pressure 30.17 in    
Wind  
Wind Speed 9 mph (West)    
Max Wind Speed 28 mph    
Max Gust Speed 45 mph    
Visibility 10 miles    
Events      
Averages and records for this station are not official NWS values.
T = Trace of Precipitation, MM = Missing Value Source: NWS Daily Summary

Daily Weather History Graph

Daily Weather History Graph

Search for Another Location

Airport:

Trip Planner

Search our weather history database for the weather conditions in past years. The results will help you decide how hot, cold, wet, or windy it might be!

Date:

Astronomy

Dec. 02, 2013 Rise Set
Actual Time 6:52 AM PST 4:36 PM PST
Civil Twilight 6:23 AM PST 5:05 PM PST
Nautical Twilight 5:51 AM PST 5:38 PM PST
Astronomical Twilight 5:19 AM PST 6:09 PM PST
Moon 6:23 AM PST (12/2) 4:44 PM PST (12/2)
Length of Visible Light 10h 41m
Length of Day
9h 44m
Waning Crescent, 0% of the Moon is Illuminated
Dec 2
Waning Crescent
Dec 2
New
Dec 9
First Quarter
Dec 17
Full
Dec 25
Last Quarter

Hourly Weather History & Observations

Time (PST) Temp. Windchill Dew Point Humidity Pressure Visibility Wind Dir Wind Speed Gust Speed Precip Events Conditions
12:15 AM 26.6 °F 22.6 °F 12.2 °F 55% 30.40 in 10.0 mi NW 3.5 mph - N/A   Clear
12:35 AM 19.4 °F 12.8 °F 10.4 °F 68% 30.39 in 10.0 mi North 4.6 mph - N/A   Clear
12:55 AM 21.2 °F 16.4 °F 10.4 °F 63% 30.39 in 10.0 mi North 3.5 mph - N/A   Clear
1:15 AM 23.0 °F 18.4 °F 10.4 °F 59% 30.38 in 10.0 mi North 3.5 mph - N/A   Clear
1:35 AM 21.2 °F 14.9 °F 10.4 °F 63% 30.38 in 10.0 mi NNW 4.6 mph - N/A   Clear
1:55 AM 19.4 °F 12.8 °F 10.4 °F 68% 30.38 in 10.0 mi North 4.6 mph - N/A   Clear
2:15 AM 21.2 °F 16.4 °F 10.4 °F 63% 30.38 in 10.0 mi North 3.5 mph - N/A   Clear
2:35 AM 23.0 °F 18.4 °F 12.2 °F 63% 30.37 in 10.0 mi West 3.5 mph - N/A   Clear
2:55 AM 17.6 °F 10.7 °F 10.4 °F 73% 30.36 in 10.0 mi West 4.6 mph - N/A   Clear
3:15 AM 14.0 °F 8.2 °F 6.8 °F 73% 30.35 in 10.0 mi NNW 3.5 mph - N/A   Clear
3:35 AM 17.6 °F 12.3 °F 6.8 °F 63% 30.34 in 10.0 mi NNW 3.5 mph - N/A   Clear
3:55 AM 14.0 °F - 6.8 °F 73% 30.33 in 10.0 mi Calm Calm - N/A   Clear
4:15 AM 14.0 °F 2.9 °F 6.8 °F 73% 30.33 in 10.0 mi NW 8.1 mph - N/A   Clear
4:35 AM 14.0 °F - 6.8 °F 73% 30.33 in 10.0 mi Calm Calm - N/A   Clear
4:55 AM 15.8 °F - 8.6 °F 73% 30.31 in 10.0 mi North - - N/A   Clear
5:15 AM 15.8 °F - 8.6 °F 73% 30.30 in 10.0 mi Calm Calm - N/A   Clear
5:35 AM 17.6 °F 12.3 °F 10.4 °F 73% 30.30 in 10.0 mi WNW 3.5 mph - N/A   Clear
5:55 AM 15.8 °F - 8.6 °F 73% 30.29 in 10.0 mi Calm Calm - N/A   Clear
6:15 AM 14.0 °F - 8.6 °F 79% 30.30 in 10.0 mi Calm Calm - N/A   Clear
6:35 AM 12.2 °F - 6.8 °F 79% 30.30 in 10.0 mi Calm Calm - N/A   Clear
6:55 AM 12.2 °F - 6.8 °F 79% 30.30 in 10.0 mi Calm Calm - N/A   Clear
7:15 AM 15.8 °F - 8.6 °F 73% 30.28 in 10.0 mi Calm Calm - N/A   Clear
7:35 AM 17.6 °F - 10.4 °F 73% 30.28 in 10.0 mi North - - N/A   Clear
7:55 AM 23.0 °F - 12.2 °F 63% 30.29 in 10.0 mi Calm Calm - N/A   Unknown
8:15 AM 28.4 °F 24.6 °F 14.0 °F 55% 30.28 in 10.0 mi NNW 3.5 mph - N/A   Clear
8:35 AM 35.6 °F - 14.0 °F 41% 30.28 in 10.0 mi Calm Calm - N/A   Clear
8:55 AM 44.6 °F 42.2 °F 14.0 °F 29% 30.28 in 10.0 mi NNW 4.6 mph - N/A   Clear
9:15 AM 55.4 °F - 6.8 °F 14% 30.27 in 10.0 mi WSW 20.7 mph 29.9 mph N/A   Clear
9:35 AM 55.4 °F - 6.8 °F 14% 30.27 in 10.0 mi West 16.1 mph 24.2 mph N/A   Clear
9:55 AM 57.2 °F - 6.8 °F 13% 30.25 in 10.0 mi West 15.0 mph 20.7 mph N/A   Clear
10:15 AM 57.2 °F - 5.0 °F 12% 30.25 in 10.0 mi WSW 25.3 mph 34.5 mph N/A   Clear
10:35 AM 57.2 °F - 5.0 °F 12% 30.24 in 10.0 mi WSW 24.2 mph 32.2 mph N/A   Clear
10:55 AM 57.2 °F - 6.8 °F 13% 30.24 in 10.0 mi WSW 25.3 mph 35.7 mph N/A   Clear
11:15 AM 57.2 °F - 6.8 °F 13% 30.23 in 10.0 mi WSW 20.7 mph 33.4 mph N/A   Clear
11:35 AM 57.2 °F - 6.8 °F 13% 30.21 in 10.0 mi WSW 17.3 mph 26.5 mph N/A   Clear
11:55 AM 57.2 °F - 6.8 °F 13% 30.19 in 10.0 mi WSW 23.0 mph 29.9 mph N/A   Clear
12:15 PM 57.2 °F - 6.8 °F 13% 30.19 in 10.0 mi West 16.1 mph 29.9 mph N/A   Clear
12:35 PM 59.0 °F - 8.6 °F 14% 30.18 in 10.0 mi West 17.3 mph 24.2 mph N/A   Clear
12:55 PM 57.2 °F - 8.6 °F 14% 30.17 in 10.0 mi WSW 20.7 mph 28.8 mph N/A   Clear
1:15 PM 59.0 °F - 8.6 °F 14% 30.15 in 10.0 mi WSW 17.3 mph 33.4 mph N/A   Clear
1:35 PM 57.2 °F - 6.8 °F 13% 30.13 in 10.0 mi West 23.0 mph 33.4 mph N/A   Clear
1:55 PM 57.2 °F - 6.8 °F 13% 30.12 in 10.0 mi WSW 23.0 mph 35.7 mph N/A   Clear
2:15 PM 57.2 °F - 6.8 °F 13% 30.10 in 10.0 mi West 20.7 mph 33.4 mph N/A   Clear
2:35 PM 57.2 °F - 6.8 °F 13% 30.08 in 10.0 mi WSW 20.7 mph 33.4 mph N/A   Clear
2:55 PM 55.4 °F - 6.8 °F 14% 30.07 in 10.0 mi WSW 21.9 mph 36.8 mph N/A   Clear
3:15 PM 57.2 °F - 6.8 °F 13% 30.06 in 10.0 mi SW 17.3 mph 38.0 mph N/A   Clear
3:35 PM 53.6 °F - 6.8 °F 15% 30.07 in 10.0 mi WSW 12.7 mph 27.6 mph N/A   Clear
3:55 PM 53.6 °F - 6.8 °F 15% 30.06 in 10.0 mi West 16.1 mph 27.6 mph N/A   Clear
4:15 PM 53.6 °F - 5.0 °F 14% 30.05 in 10.0 mi WSW 10.4 mph 25.3 mph N/A   Clear
4:35 PM 53.6 °F - 5.0 °F 14% 30.05 in 10.0 mi NW 16.1 mph 32.2 mph N/A   Clear
4:55 PM 51.8 °F - 5.0 °F 15% 30.04 in 10.0 mi West 11.5 mph 20.7 mph N/A   Clear
5:15 PM 50.0 °F - 6.8 °F 17% 30.03 in 10.0 mi WSW 16.1 mph 27.6 mph N/A   Clear
5:35 PM 51.8 °F - 8.6 °F 18% 30.03 in 10.0 mi WSW 15.0 mph 33.4 mph N/A   Clear
5:55 PM 51.8 °F - 8.6 °F 18% 30.03 in 10.0 mi West 21.9 mph 40.3 mph N/A   Clear
6:15 PM 50.0 °F - 8.6 °F 19% 30.03 in 10.0 mi West 17.3 mph 24.2 mph N/A   Clear
6:35 PM 50.0 °F - 8.6 °F 19% 30.03 in 10.0 mi West 16.1 mph 43.7 mph N/A   Clear
6:55 PM 48.2 °F - 10.4 °F 22% 30.00 in 10.0 mi SW 8.1 mph 29.9 mph N/A   Clear
7:15 PM 50.0 °F - 8.6 °F 19% 30.00 in 10.0 mi West 19.6 mph 43.7 mph N/A   Clear
7:35 PM 48.2 °F - 6.8 °F 19% 29.99 in 10.0 mi WSW 10.4 mph 25.3 mph N/A   Clear
7:55 PM 48.2 °F - 3.2 °F 16% 29.97 in 10.0 mi SW 11.5 mph 20.7 mph N/A   Clear
8:15 PM 48.2 °F - 3.2 °F 16% 29.97 in 10.0 mi WSW 17.3 mph 21.9 mph N/A   Clear
8:35 PM 46.4 °F 41.1 °F 3.2 °F 17% 29.97 in 10.0 mi West 11.5 mph 24.2 mph N/A   Clear
8:55 PM 46.4 °F 39.2 °F 3.2 °F 17% 29.97 in 10.0 mi West 18.4 mph 28.8 mph N/A   Clear
9:15 PM 48.2 °F - 10.4 °F 22% 29.97 in 10.0 mi WSW 19.6 mph 28.8 mph N/A   Clear
9:35 PM 48.2 °F - 14.0 °F 25% 29.95 in 10.0 mi West 23.0 mph 40.3 mph N/A   Scattered Clouds
9:55 PM 50.0 °F - 19.4 °F 30% 29.95 in 10.0 mi West 24.2 mph 44.9 mph N/A   Clear
10:15 PM 46.4 °F 39.5 °F 15.8 °F 29% 29.94 in 10.0 mi WNW 17.3 mph 24.2 mph N/A   Clear
10:35 PM 48.2 °F - 17.6 °F 30% 29.93 in 10.0 mi WNW 17.3 mph 28.8 mph N/A   Clear
10:55 PM 48.2 °F - 17.6 °F 30% 29.92 in 10.0 mi NW 16.1 mph 33.4 mph N/A   Scattered Clouds
11:15 PM 46.4 °F 37.5 °F 15.8 °F 29% 29.91 in 10.0 mi West 27.6 mph 39.1 mph N/A   Scattered Clouds
11:35 PM 48.2 °F - 19.4 °F 32% 29.91 in 10.0 mi West 26.5 mph 42.6 mph N/A   Scattered Clouds
11:55 PM 48.2 °F - 21.2 °F 34% 29.91 in 10.0 mi West 23.0 mph 36.8 mph N/A   Scattered Clouds